Regional Weather Roundup
Issued by NWS

Home | Current Version | Previous Version | Graphics & Text | Print | Product List | Glossary On
Versions: 1 2 3 4 5 6 7 8 9 10 11 12 13 14 15 16 17 18 19 20 21 22 23 24 25 26 27
000
ASUS45 KCYS 240910
RWRWY

WYOMING REGIONAL WEATHER ROUNDUP
NATIONAL WEATHER SERVICE CHEYENNE WY
300 AM MDT THU APR 24 2014

NOTE:  "FAIR" INDICATES FEW OR NO CLOUDS BELOW 12,000 FEET
WITH NO SIGNIFICANT WEATHER AND/OR OBSTRUCTIONS TO VISIBILITY.

WYZ001-241000-
YELLOWSTONE NATIONAL PARK

CITY           SKY/WX    TMP DP  RH WIND       PRES   REMARKS
LK YELLOWSTONE   N/A     25  19  78 VRB7      29.98F WCI  17
W YELLOWSTONE  NOT AVBL

$$
WYZ002>013-054>058-071-098>099-241000-
NORTHERN WYOMING

CITY           SKY/WX    TMP DP  RH WIND       PRES   REMARKS
JACKSON        MOCLDY    30  23  74 S7        30.01F WCI  23
CODY           PTCLDY    43  18  36 W23G31    29.86F
GREYBULL       PTCLDY    35  21  56 SE5       29.89S WCI  31
WORLAND        PTCLDY    33  18  53 SE8       29.89S WCI  26
SHERIDAN         N/A     28  14  54 W13G18      N/A  WCI  18
BUFFALO        CLEAR     38  12  34 SW6       29.86F WCI  33
GILLETTE       CLEAR     33  24  69 SW9       29.86F WCI  25
HULETT         FAIR      32  21  64 SW7       29.87  WCI  26
NEWCASTLE      FAIR      32  23  69 N5        29.90  WCI  27

$$
WYZ014>020-022>026-101>103-241000-
CENTRAL WYOMING

CITY           SKY/WX    TMP DP  RH WIND       PRES   REMARKS
BIG PINEY      CLEAR     20  13  74 E5        30.04F WCI  13
PINEDALE       MOSUNNY   23  19  86 NW3       30.04F
DUBOIS         FAIR      28  16  59 NW10      29.94S WCI  19
LANDER         PTCLDY    34  13  41 SW6       29.94F WCI  29
RIVERTON       CLEAR     32  16  51 W8        29.95F WCI  25
CASPER         CLEAR     29  16  58 SW8       29.95R WCI  21
DOUGLAS        CLEAR     31  21  66 N7        29.94S WCI  24

$$
WYZ021-027>030-104>119-241000-
SOUTHERN WYOMING

CITY           SKY/WX    TMP DP  RH WIND       PRES   REMARKS
EVANSTON       CLEAR     26  15  63 SW9       30.06F WCI  17
FORT BRIDGER   FAIR      31  18  59 SW13      30.08F WCI  21
ROCK SPRINGS   CLEAR     31  14  49 SW14      30.05S WCI  21
DIXON          FAIR      27  17  66 CALM      30.10S
RAWLINS        CLEAR     30  15  53 W21G30    30.01S WCI  17
SARATOGA       FAIR      28  16  59 W7        30.05R WCI  21
LARAMIE        CLEAR     27  11  51 W14       29.99S WCI  16
CHEYENNE       PTCLDY    34  11  38 NW13G24   29.96S WCI  25
TORRINGTON     PTCLDY    36  30  79 NW3       29.92R
PINE BLUFFS    FAIR      34  12  40 NW9       29.96R WCI  26

$$



USA.gov is the U.S. government's official web portal to all federal, state and local government web resources and services.